This is the latest recevied weather packets stored in our database for station/object VK2OB. If no packets are shown the sender has not sent any weather packets the latest 10 day(s).
| Time | Temp. | Humidity | Pressure | Rain* | Wind** | Luminosity | Snow |
|---|---|---|---|---|---|---|---|
| 1777898964 | 17.78° C | 92% | 1015.9 hPa | 0 mm | - | - | - |
| 1777898665 | 17.78° C | 92% | 1016 hPa | 0 mm | - | - | - |
| 1777898366 | 17.78° C | 92% | 1016.2 hPa | 0 mm | - | - | - |
| 1777898066 | 17.78° C | 92% | 1016.2 hPa | 0 mm | - | - | - |
| 1777897768 | 17.78° C | 92% | 1016.2 hPa | 0 mm | - | - | - |
| 1777897469 | 17.78° C | 94% | 1016.3 hPa | 0 mm | - | - | - |
| 1777897170 | 17.78° C | 94% | 1016.4 hPa | 0 mm | - | - | - |
| 1777896871 | 17.78° C | 92% | 1016.4 hPa | 0 mm | - | - | - |
| 1777896571 | 17.78° C | 92% | 1016.5 hPa | 0 mm | - | - | - |
| 1777896273 | 17.78° C | 93% | 1016.7 hPa | 0 mm | - | - | - |
| 1777895974 | 17.78° C | 93% | 1016.6 hPa | 0 mm | - | - | - |
| 1777895675 | 18.33° C | 93% | 1016.6 hPa | 0 mm | - | - | - |
| 1777895376 | 18.33° C | 93% | 1016.6 hPa | 0.25 mm | - | - | - |
| 1777895077 | 18.33° C | 93% | 1016.7 hPa | 0.25 mm | - | - | - |
| 1777894778 | 18.33° C | 93% | 1016.8 hPa | 0.25 mm | - | - | - |
| 1777894479 | 18.33° C | 92% | 1016.7 hPa | 0.51 mm | - | - | - |
| 1777894180 | 18.33° C | 92% | 1016.4 hPa | 1.02 mm | - | - | - |
| 1777893881 | 18.33° C | 92% | 1016.5 hPa | 1.27 mm | - | - | - |
| 1777893582 | 18.33° C | 92% | 1016.4 hPa | 1.27 mm | - | - | - |
| 1777893283 | 18.33° C | 92% | 1016.4 hPa | 1.27 mm | - | - | - |
| 1777892984 | 18.33° C | 91% | 1016.4 hPa | 1.27 mm | - | - | - |
| 1777892685 | 18.33° C | 91% | 1016.6 hPa | 1.27 mm | - | - | - |
| 1777892385 | 18.33° C | 91% | 1016.7 hPa | 1.27 mm | - | - | - |
| 1777891788 | 18.33° C | 88% | 1016.7 hPa | 1.02 mm | - | - | - |
| 1777891189 | 18.33° C | 88% | 1016.7 hPa | 1.02 mm | - | - | - |
* Rain latest hour (hover to see other rain measurements)
** Current wind speed in m/s (hover to see current wind gust speed)